Location: Ottawa
(45.4167°N, 75.7000°W)
Time: 08:15:22
(UTC-05:00)

Tiangong 2 - Pass Details

Date: 13 October 2017
Orbit: 386 x 390 km, 42.8° (Epoch: 10 December)

Event Time Altitude Azimuth Distance (km) Brightness Sun altitude
Exits shadow 05:55:52 30° 234° (SW) 721 2.0 -14.9°
Maximum altitude 05:57:05 51° 175° (S) 500 1.6 -14.7°
Drops below altitude 10° 06:00:13 10° 98° (E) 1,425 5.3 -14.2°
Sets 06:02:20 0° 93° (E) 2,282 6.9 -13.8°
